AQI (35)

Current Conditions for Foresthill, CA. Clear skies, Dry   
Visibility: 10 miles
Space WX Alerts: WARNING:  Geomagnetic K-index of 4 expected ( Latest Alert ) - Issue Time: 2020 Jan 29 0234 UTC

  Summary / Temperature 

Current Temperature
38.6°F
3.7°C
(24/hr Ago)
44.1°F
(Apparent temp)
35.3°F
Cool
Wind Chill Graphs
38.6°F 
Wind Chill-Avg
39.5°F 4.2°C
 --- Virtual Temp: 40.0°F ---

 Temp Rate:

 24/hr Difference:

 Avg Running Temp:

 Todays High:

 Todays Low:

 Y-days High:

 Y-days Low:

 Todays WChill:

 Y-days WChill:

 Evapotranspiration:

-1.2°F/hr 

-5.5°F

39.7°F

39.2°F 12:00am

38.6°F 12:35am

49.3°F 3:11pm

39.1°F 11:59pm

33.6°F 12:34am

30.3°F 5:45am

0.002 in

115' Above Ground

 Temperature:

 6'AGL VRS 115'AGL:

 Avg Running Temp:

 Humidity:

 Todays High:

 Todays Low:

 Y-days High:

 Y-days Low:

50.0°F 

+11.4°F

50.0°F

0% 

50.0°F 12:00am

50.0°F 12:00am

50.0°F 4:18pm

47.0°F 2:41pm

Temp & Humidity Graphs

  Wind 

Wind Speed

 Calm

Gusting to

 7.0 mph

Wind from SE

142°  SE

Calm

 Avg speed:

 Wind Run:

 Peak Gust:

  1.0 mph 

0.0 miles

  7.0 mph 12:35am

  Almanac  

Moon age: 4 days,1 hours,30 minutes,18%

Waxing Crescent
18%
Illuminated
4 days in cycle

 Moonrise:

 Moonset:

 Sunrise:

 Sunset:

 Solar Noon:

10:00am

10:03pm

7:10am

5:18pm

12:17pm

1min 56s more daylight tomorrow 

  Solar Radiation 

(Current Solar)
  No Sun Light
(Todays High)
 None@12:00am

Rain

 Rain Today:

 Rain Rate (/hr):

 Rain last hour:

 Rain Yesterday:

 This Month:

 Season Total:

8 Days Since Last Dry Day

0.00 in

0.000 in

0.00 in

0.02 in

5.27 in

20.37 in

Updated Time

Updated: 1/29/20  12:39am

(Updated  sec ago)

Humidity & Barometer

 Humidity:

 Wetbulb:

 Dew Point:

 Barometer:

94% 

37.9°F 

37.0°F 

30.336 inHg 

 Baro Trend:  Steady 
Northern Calif
Preparedness
Fire 
Level 

    UV Index  

(Current UV)
0.0  None
(Todays High) @ 12:00am
0.0   None

National Weather Service Forecast

Overnight

Overnight: Mostly Clear
Mostly Clear
Wednesday

Wednesday: Sunny
Sunny
Wednesday
Night
Wednesday Night: Partly Cloudy
Partly Cloudy
Thursday

Thursday: Mostly Sunny
Mostly Sunny
Thursday
Night
Thursday Night: Partly Cloudy
Partly Cloudy
Friday

Friday: Mostly Sunny
Mostly Sunny
Lo 36 °F Hi 57 °F ↓ Lo 42 °F Hi 60 °F Lo 44 °F Hi 63 °F

Foresthill Probe 2 Stats  
Foresthill Probe 2: is located on Thomas Street
at 3000 feet. The main Foresthill Weather site
is located on Melody ln at the 2860 foot elevation

Calm
37.7°F
3.2°C
Temp Rate:
-1.5°F
Calm
Gusting to
None
(Humidity)
96%
Calm
138°  
Updated: 29/01/20 - 00:41:26
 Todays High: 38.7°F 00:00
 Todays Low: 37.7°F 00:38
 Rain Today: 0.00 in
 Season Total: 19.65 in

Foresthill Wx: Monthly,Yearly, Highs and Lows 

Foresthill  
This Weather Data is coming from the main Foresthill
Weather site located on Melody ln at the 2860 foot
elevation
Not Foresthill Probe 2
Weather Data
Month
  High
Month
  Low
Year
High
Year
Low
Temp 60.6°F
1/19/20
30.5°F
1/15/20
60.6°F
1/19/20
30.5°F
1/15/20
Humidity 100%
1/8/20
30%
1/7/20
100%
1/8/20
30%
1/7/20
Heat Index 62.1°F
1/19/20
35.0°F
1/15/20
62.1°F
1/19/20
35.0°F
1/15/20
Wind Chill 60.6°F
1/19/20
17.7°F
1/15/20
60.6°F
1/19/20
17.7°F
1/15/20
Wind Gust 40 mph
1/16/20
0 mph
1/1/20
40 mph
1/16/20
0 mph
1/1/20
Barometer 30.59 in
1/5/20
29.73 in
1/16/20
30.59 in
1/5/20
29.73 in
1/16/20
ET 0.07 in
1/7/20
0.00 in
1/1/20
0.07 in
1/7/20
0.00 in
1/1/20
Dew Point 49.2°F
1/25/20
24.2°F
1/7/20
49.2°F
1/25/20
24.2°F
1/7/20
Visible Satellite Pacific Satellite US Radar Satellite Imagery Sacramento,CA.  (click to enlarge)
NWS Weather Forecast - Summary
Updated: Tuesday, January 28, 2020 - 2:25pm PST
NWS Weather Forecast: Overnight and Wednesday (Updated: Tue, 28-Jan-2020 6:49pm PST)
Overnight

Overnight: Mostly Clear
Mostly Clear

Lo 36 °F
NWS forecast: Mostly clear, with a low around 36. East wind 2 to 6 mph.
Wednesday

Wednesday: Sunny
Sunny

Hi 57 °F ↓
NWS forecast: Sunny. High near 57, with temperatures falling to around 51 in the afternoon. East northeast wind around 6 mph.
YR.NO 10 Day Weather forecast
Last update: 01/28/2020 @ 17:23
Next update: 01/28/2020 @ 23:25
Provided by: 22
      Temperature Precipitation Pressure Wind  
Tomorrow
01/28/2020
22:00 00:00 41°F   30.29 inHg Light breeze from east-northeast 4 mph
    (Click to enlarge)
meteogram

    Forecast for next 9 days

      Temperature Precip Pressure Wind  
Today 00:00 06:00 34°F   30.29 inHg Light breeze from east-northeast 5 mph
  06:00 12:00 32°F   30.24 inHg Light breeze from east-northeast 7 mph
  12:00 18:00 59°F   30.17 inHg Light breeze from west-northwest 4 mph
  18:00 00:00 48°F   30.15 inHg Light air from east-northeast 2 mph
      Temperature Precip Pressure Wind  
Thursday
01/30/2020
00:00 06:00 39°F   30.18 inHg Light breeze from east 4 mph
  06:00 12:00 37°F   30.18 inHg Light air from east 3 mph
  12:00 18:00 61°F   30.21 inHg Light breeze from west-northwest 4 mph
  18:00 00:00 50°F   30.19 inHg Light breeze from east-northeast 5 mph
      Temperature Precip Pressure Wind  
Friday
01/31/2020
00:00 06:00 37°F   30.27 inHg Light breeze from east-northeast 6 mph
  04:00 10:00 34°F   30.27 inHg Light breeze from east 5 mph
  10:00 16:00 57°F   30.30 inHg Calm from west 0 mph
  16:00 22:00 57°F   30.27 inHg Light air from west 2 mph
  22:00 04:00 41°F   30.31 inHg Light breeze from east 4 mph
      Temperature Precip Pressure Wind  
Saturday
02/01/2020
04:00 10:00 32°F   30.27 inHg Light breeze from east 5 mph
  10:00 16:00 59°F   30.30 inHg Light air from east 1 mph
  16:00 22:00 59°F   30.17 inHg Light air from west-southwest 3 mph
  22:00 04:00 46°F   30.13 inHg Light breeze from east 4 mph
      Temperature Precip Pressure Wind  
Sunday
02/02/2020
04:00 10:00 41°F 0.05 in 30.00 inHg Light breeze from southeast 5 mph
  10:00 16:00 37°F 0.16 in 29.97 inHg Gentle breeze from southwest 9 mph
  16:00 22:00 34°F < 0.01 in 29.94 inHg Gentle breeze from west-northwest 9 mph
  22:00 04:00 27°F   29.98 inHg Light breeze from north-northeast 6 mph
      Temperature Precip Pressure Wind  
Monday
02/03/2020
04:00 10:00 23°F   29.99 inHg Light breeze from northeast 6 mph
  10:00 16:00 32°F   30.05 inHg Gentle breeze from north-northwest 8 mph
  16:00 22:00 37°F   29.99 inHg Light breeze from north 7 mph
  22:00 04:00 23°F   30.11 inHg Light breeze from north-northeast 7 mph
      Temperature Precip Pressure Wind  
Tuesday
02/04/2020
04:00 10:00 21°F   30.13 inHg Light breeze from north-northeast 4 mph
  10:00 16:00 37°F   30.16 inHg Light air from north-northeast 3 mph
  16:00 22:00 45°F   30.11 inHg Light air from west-northwest 2 mph
  22:00 04:00 27°F   30.21 inHg Light breeze from east-northeast 4 mph
      Temperature Precip Pressure Wind  
Wednesday
02/05/2020
04:00 10:00 23°F   30.27 inHg Light air from east 3 mph
  10:00 16:00 41°F   30.33 inHg Light air from west-southwest 3 mph
  16:00 22:00 43°F   30.25 inHg Light air from west-southwest 2 mph
  22:00 04:00 34°F   30.27 inHg Light air from east 2 mph
      Temperature Precip Pressure Wind  
Thursday
02/06/2020
04:00 10:00 30°F   30.24 inHg Light air from east-northeast 3 mph
  10:00 16:00 52°F   30.22 inHg Light air from north 2 mph
  16:00 22:00 59°F   30.10 inHg Light breeze from north-northwest 4 mph

NOAA Local Storm Report
5 MILES SOUTHWEST OF PALO CEDRO   ( More )
DATE
11/20/2019
TIME
9:19 AM
COUNTY
SHASTA
STATE
CA
GEOGRAPHIC
40.52N 122.30W
SOURCE
ASOS
NON-THUNDERSTORM WIND GUST MEASURED AT 45 MPH
asos station krdd redding airport.
How Close Are We To this Month's Temperature Record ?
Updated Wednesday, Jan 29, 2020- 12:40:01 AM

Current Temperature: 38.6°F

January's High: Temperature Record 71.3°F - Set on Sat, Jan 24, 2015 - 3:19:00 PM
We are currently 32.7°F Less than this Month's record High

January's Low: Temperature Record 24.7°F - Set on Sun, Jan 13, 2013 - 7:29:00 AM
We are currently 13.9°F More than this Month's record Low

Weather History For Wednesday, January 29, 2020


On this Day - In Weather History ...
Data courtesy of weatherforyou.com
powered by Cumulus v1.9.3 (1059)
Ambient Weather VWS v14.00
Top Website Map Copyright © 2007 - 2020 Foresthillweather.com Never base important decisions on this or any weather information obtained from the Internet